Precipitable_Water
0.45 0.45 0.44 0.40 0.39 0.40 0.36 0.38 0.33 0.37 0.38 0.43 0.44 0.43 0.42 0.45 0.47 0.51 0.51 0.50 0.48 0.52 0.54 0.59 0.64 0.66 0.68 0.66 0.65 0.69 0.69 0.69 0.67 0.74 0.84 0.92 0.94 1.03 1.14 1.20 1.14 1.16 1.24 1.19
0.39 0.44 0.42 0.38 0.42 0.42 0.41 0.41 0.39 0.40 0.39 0.50 0.50 0.51 0.48 0.46 0.46 0.48 0.52 0.55 0.53 0.48 0.51 0.55 0.59 0.61 0.64 0.66 0.67 0.71 0.66 0.64 0.66 0.69 0.79 0.86 0.97 1.04 1.13 1.17 1.19 1.18 1.16 1.17
0.27 0.38 0.37 0.29 0.39 0.42 0.43 0.44 0.41 0.35 0.42 0.49 0.49 0.51 0.51 0.52 0.52 0.51 0.52 0.55 0.57 0.55 0.53 0.54 0.56 0.61 0.61 0.63 0.73 0.73 0.69 0.69 0.72 0.71 0.74 0.82 0.95 1.02 1.05 1.12 1.15 1.14 1.14 1.11
0.29 0.32 0.24 0.38 0.43 0.44 0.41 0.43 0.46 0.46 0.48 0.50 0.49 0.52 0.55 0.56 0.53 0.53 0.54 0.52 0.55 0.56 0.55 0.55 0.56 0.62 0.65 0.67 0.72 0.73 0.72 0.72 0.75 0.71 0.79 0.88 0.93 0.97 1.03 1.07 1.08 1.09 1.08 1.07
0.25 0.23 0.27 0.31 0.40 0.37 0.39 0.37 0.48 0.46 0.47 0.48 0.52 0.50 0.49 0.55 0.56 0.53 0.54 0.51 0.50 0.55 0.57 0.57 0.58 0.64 0.69 0.69 0.72 0.74 0.73 0.75 0.82 0.75 0.87 0.92 0.93 0.92 0.96 0.98 1.01 1.02 1.01 1.00
0.29 0.21 0.16 0.24 0.37 0.45 0.38 0.22 0.41 0.50 0.50 0.49 0.50 0.40 0.45 0.55 0.59 0.58 0.56 0.56 0.53 0.56 0.61 0.61 0.60 0.66 0.66 0.71 0.75 0.73 0.78 0.78 0.87 0.86 0.87 0.86 0.91 0.91 0.95 0.97 0.95 0.96 0.96 0.95
0.24 0.21 0.23 0.33 0.34 0.43 0.23 0.23 0.42 0.47 0.56 0.57 0.51 0.53 0.55 0.59 0.58 0.62 0.62 0.60 0.62 0.60 0.59 0.61 0.66 0.70 0.68 0.74 0.75 0.79 0.84 0.84 0.95 0.91 0.88 0.88 0.88 0.89 0.86 0.85 0.85 0.86 0.88 0.90
0.26 0.22 0.13 0.34 0.32 0.24 0.35 0.46 0.55 0.55 0.56 0.57 0.62 0.61 0.61 0.59 0.58 0.61 0.63 0.63 0.68 0.62 0.65 0.70 0.74 0.75 0.73 0.72 0.74 0.80 0.86 0.90 0.96 0.95 0.89 0.89 0.87 0.85 0.84 0.80 0.79 0.80 0.81 0.80
0.25 0.19 0.30 0.37 0.34 0.35 0.39 0.38 0.43 0.59 0.61 0.64 0.65 0.63 0.65 0.63 0.63 0.61 0.60 0.63 0.70 0.68 0.69 0.71 0.75 0.75 0.69 0.75 0.84 0.89 0.91 0.91 0.90 0.86 0.86 0.83 0.80 0.76 0.75 0.79 0.79 0.77 0.75 0.68
0.24 0.24 0.26 0.31 0.36 0.39 0.43 0.43 0.47 0.50 0.59 0.61 0.64 0.65 0.65 0.67 0.66 0.66 0.64 0.65 0.73 0.77 0.72 0.73 0.78 0.82 0.84 0.88 0.93 0.96 0.96 0.93 0.89 0.86 0.82 0.81 0.81 0.80 0.81 0.81 0.79 0.74 0.68 0.64
0.26 0.30 0.32 0.34 0.41 0.45 0.44 0.50 0.52 0.52 0.56 0.61 0.62 0.60 0.69 0.71 0.71 0.71 0.74 0.74 0.79 0.78 0.82 0.80 0.83 0.91 0.94 0.94 0.94 0.89 0.88 0.85 0.83 0.82 0.81 0.80 0.81 0.82 0.81 0.80 0.76 0.71 0.68 0.66
0.24 0.37 0.35 0.34 0.44 0.48 0.49 0.49 0.53 0.54 0.57 0.61 0.63 0.65 0.65 0.67 0.75 0.74 0.77 0.80 0.78 0.81 0.86 0.85 0.88 0.89 0.91 0.93 0.92 0.90 0.84 0.81 0.80 0.79 0.78 0.77 0.75 0.73 0.78 0.77 0.76 0.74 0.71 0.68
0.39 0.45 0.44 0.46 0.52 0.53 0.51 0.56 0.59 0.65 0.61 0.60 0.64 0.65 0.64 0.64 0.68 0.71 0.75 0.77 0.78 0.78 0.82 0.84 0.85 0.86 0.87 0.90 0.88 0.86 0.81 0.79 0.77 0.76 0.73 0.72 0.72 0.72 0.69 0.69 0.69 0.67 0.65 0.62
0.51 0.48 0.44 0.49 0.45 0.51 0.58 0.64 0.64 0.64 0.62 0.61 0.60 0.62 0.65 0.60 0.61 0.62 0.61 0.66 0.71 0.74 0.80 0.80 0.82 0.83 0.85 0.86 0.85 0.83 0.81 0.79 0.78 0.73 0.71 0.70 0.68 0.66 0.63 0.60 0.57 0.56 0.56 0.55
0.52 0.53 0.52 0.53 0.55 0.57 0.61 0.65 0.63 0.62 0.61 0.59 0.61 0.58 0.57 0.56 0.54 0.54 0.56 0.57 0.60 0.61 0.65 0.69 0.71 0.71 0.75 0.79 0.78 0.76 0.73 0.71 0.70 0.68 0.64 0.65 0.62 0.59 0.57 0.53 0.50 0.49 0.49 0.48
0.49 0.51 0.52 0.50 0.51 0.54 0.57 0.56 0.59 0.57 0.60 0.59 0.56 0.54 0.54 0.54 0.52 0.51 0.52 0.52 0.51 0.51 0.55 0.59 0.65 0.67 0.71 0.71 0.69 0.67 0.65 0.63 0.61 0.59 0.56 0.55 0.54 0.50 0.48 0.46 0.45 0.44 0.42 0.40
0.42 0.43 0.48 0.48 0.51 0.52 0.54 0.57 0.58 0.57 0.58 0.55 0.54 0.53 0.54 0.54 0.51 0.50 0.50 0.51 0.52 0.52 0.52 0.53 0.54 0.59 0.60 0.58 0.58 0.55 0.57 0.54 0.52 0.51 0.47 0.46 0.45 0.44 0.43 0.42 0.40 0.39 0.37 0.36
0.44 0.49 0.50 0.49 0.48 0.50 0.51 0.53 0.52 0.54 0.54 0.54 0.54 0.52 0.52 0.51 0.47 0.48 0.49 0.50 0.50 0.50 0.49 0.49 0.50 0.50 0.51 0.51 0.51 0.50 0.47 0.46 0.45 0.43 0.43 0.42 0.41 0.39 0.38 0.37 0.36 0.35 0.34 0.33
0.41 0.41 0.45 0.46 0.47 0.49 0.49 0.49 0.48 0.48 0.48 0.50 0.49 0.47 0.47 0.45 0.44 0.44 0.45 0.45 0.44 0.43 0.44 0.47 0.46 0.46 0.46 0.47 0.46 0.45 0.44 0.43 0.41 0.40 0.39 0.38 0.37 0.36 0.34 0.33 0.32 0.31 0.30 0.29
0.38 0.40 0.41 0.43 0.44 0.44 0.44 0.45 0.46 0.45 0.45 0.46 0.45 0.43 0.42 0.42 0.43 0.43 0.42 0.41 0.40 0.40 0.42 0.42 0.42 0.42 0.42 0.41 0.41 0.40 0.38 0.37 0.35 0.35 0.34 0.33 0.32 0.31 0.31 0.30 0.28 0.25 0.22 0.18
0.37 0.39 0.39 0.41 0.41 0.41 0.41 0.41 0.40 0.40 0.40 0.41 0.40 0.39 0.39 0.38 0.39 0.39 0.38 0.37 0.37 0.39 0.38 0.38 0.38 0.37 0.37 0.37 0.36 0.35 0.34 0.32 0.31 0.29 0.26 0.23 0.20 0.18 0.16 0.15 0.14 0.13 0.12 0.11
0.37 0.37 0.37 0.37 0.37 0.37 0.38 0.38 0.38 0.37 0.37 0.36 0.36 0.36 0.35 0.35 0.35 0.35 0.35 0.34 0.35 0.35 0.34 0.33 0.32 0.30 0.28 0.26 0.23 0.21 0.19 0.17 0.16 0.15 0.14 0.13 0.12 0.11 0.11 0.10 0.09 0.09 0.09 0.09
0.35 0.35 0.35 0.35 0.35 0.35 0.35 0.35 0.35 0.34 0.34 0.33 0.33 0.32 0.32 0.32 0.32 0.30 0.29 0.29 0.27 0.24 0.21 0.19 0.17 0.15 0.14 0.14 0.13 0.13 0.12 0.11 0.11 0.10 0.10 0.09 0.09 0.08 0.08 0.08 0.08 0.08 0.08 0.08
0.33 0.33 0.33 0.33 0.33 0.32 0.31 0.32 0.32 0.32 0.32 0.31 0.30 0.29 0.26 0.23 0.21 0.20 0.18 0.17 0.15 0.14 0.13 0.11 0.10 0.09 0.09 0.08 0.08 0.08 0.08 0.08 0.08 0.08 0.08 0.07 0.07 0.07 0.07 0.07 0.07 0.07 0.07 0.07
0.32 0.31 0.31 0.31 0.30 0.29 0.29 0.28 0.26 0.24 0.22 0.19 0.18 0.17 0.16 0.15 0.12 0.12 0.11 0.11 0.10 0.09 0.08 0.08 0.08 0.08 0.08 0.08 0.08 0.08 0.08 0.08 0.07 0.07 0.07 0.07 0.07 0.07 0.07 0.07 0.07 0.06 0.06 0.06
0.30 0.29 0.29 0.27 0.25 0.23 0.20 0.18 0.15 0.15 0.14 0.13 0.13 0.13 0.12 0.12 0.12 0.11 0.10 0.09 0.08 0.08 0.07 0.07 0.07 0.07 0.07 0.07 0.07 0.07 0.07 0.07 0.07 0.07 0.07 0.07 0.07 0.06 0.06 0.06 0.06 0.06 0.06 0.06
0.23 0.20 0.18 0.16 0.14 0.13 0.12 0.11 0.10 0.09 0.09 0.09 0.08 0.09 0.09 0.09 0.08 0.08 0.07 0.07 0.07 0.07 0.06 0.06 0.06 0.07 0.07 0.07 0.07 0.07 0.07 0.07 0.07 0.06 0.06 0.06 0.06 0.06 0.06 0.06 0.06 0.06 0.06 0.06
Wind_Speed
16 15 19 25 23 21 26 25 25 23 23 22 23 23 23 22 22 21 20 19 18 20 19 18 18 19 20 20 20 20 20 22 26 29 30 31 31 33 32 30 30 30 33 32
18 17 16 19 23 25 26 24 26 26 26 23 23 23 22 24 24 25 25 23 22 22 23 23 22 22 22 22 21 21 21 21 22 25 28 30 32 32 33 33 32 30 30 30
18 17 18 16 16 20 24 28 27 30 27 25 23 23 24 25 25 26 26 26 25 25 25 24 25 24 23 23 22 22 23 23 23 23 25 27 28 29 31 32 32 31 30 30
19 16 18 19 18 18 20 22 24 26 27 28 26 24 24 25 24 26 25 26 27 27 26 25 24 25 25 25 25 24 24 23 24 23 24 25 26 27 28 29 30 31 30 30
20 21 22 23 17 17 17 22 20 23 26 30 33 27 26 24 22 22 24 24 25 26 26 25 25 25 26 25 25 26 25 25 25 24 24 24 25 26 26 27 28 29 30 30
23 22 24 22 19 21 23 28 19 23 23 24 25 29 29 26 26 25 24 23 23 24 27 27 26 25 25 26 25 26 26 26 25 25 24 25 25 26 27 28 29 28 28 29
25 26 28 28 25 24 21 25 22 23 23 20 19 22 26 27 28 28 27 25 26 25 26 27 26 25 25 24 26 25 25 25 26 25 26 26 26 26 26 26 26 27 27 27
18 19 26 24 23 22 23 25 26 24 24 26 24 23 22 23 24 26 28 27 26 24 23 23 23 24 23 24 23 24 24 25 25 26 26 26 26 26 26 26 26 27 27 28
16 17 18 20 22 26 25 26 24 26 29 28 29 25 25 25 27 28 29 28 27 25 23 22 21 22 22 23 23 24 24 24 24 24 25 26 26 26 26 26 26 27 28 28
16 17 20 22 25 25 27 30 28 26 26 25 29 29 28 27 24 23 25 26 25 24 22 22 22 23 24 23 23 23 22 22 23 23 23 24 25 25 26 27 27 28 29 30
21 20 22 20 22 25 26 27 28 27 25 24 24 24 25 25 23 21 19 20 22 23 24 24 23 24 23 23 23 23 23 23 24 24 24 24 24 25 26 28 29 30 31 32
22 21 22 23 23 22 23 23 23 22 20 19 18 20 21 20 24 21 19 17 18 20 22 23 23 23 23 23 23 23 23 23 24 24 24 25 25 26 26 28 29 30 31 32
24 25 27 28 24 22 21 21 20 19 18 18 18 17 17 16 15 16 20 20 20 20 22 23 24 24 24 25 25 25 24 24 24 24 24 24 24 25 25 25 26 26 27 29
25 24 23 22 23 22 19 21 20 20 17 16 17 16 16 15 15 16 17 18 21 22 22 23 24 24 26 25 24 25 24 24 25 25 26 26 26 25 24 25 26 26 29 31
23 25 26 24 21 18 16 16 15 16 16 16 16 16 16 16 17 18 19 19 20 20 22 24 24 24 23 24 24 25 26 26 26 26 26 25 25 26 27 28 29 29 31 33
25 26 24 21 21 20 18 18 16 16 16 15 15 15 15 16 16 17 18 19 19 20 20 20 21 22 22 23 23 23 23 23 24 25 25 26 26 28 29 30 31 32 33 36
21 20 20 19 18 19 19 17 16 16 16 17 16 16 16 16 16 16 17 17 16 16 17 18 19 20 21 21 22 22 22 23 24 25 26 27 28 29 30 31 32 33 35 36
18 17 16 17 17 18 18 18 17 16 17 18 18 17 17 17 17 16 15 14 14 14 15 17 18 19 19 20 20 22 23 24 24 26 26 27 28 29 30 32 33 34 35 37
16 17 16 14 14 16 16 16 17 17 17 17 17 17 16 16 15 15 14 14 15 16 17 16 16 17 18 19 20 21 22 23 24 25 26 27 28 30 31 32 34 35 36 38
12 12 12 12 11 12 14 15 14 13 14 13 14 15 14 14 15 15 14 14 15 15 15 16 16 17 18 20 21 22 23 24 25 26 27 29 30 32 33 34 36 38 39 41
9 9 8 9 9 10 10 11 12 11 11 11 10 11 11 12 12 13 13 14 14 14 15 16 18 19 20 21 22 23 24 26 27 28 30 31 32 34 35 37 38 40 42 43
6 5 4 4 4 3 4 5 6 7 7 8 8 8 9 9 10 10 12 13 14 16 17 19 20 21 22 23 24 25 26 28 29 30 31 33 34 35 37 38 39 40 41 42
3 3 2 2 2 3 3 3 4 4 5 6 7 8 9 10 12 13 14 15 16 18 19 21 22 23 25 25 26 27 28 29 30 31 32 33 34 35 37 37 38 39 40 41
2 2 2 2 3 3 3 4 5 6 7 8 9 10 11 13 14 15 16 17 19 20 22 23 24 25 26 27 28 28 29 30 31 32 33 34 35 35 36 37 38 39 40 41
2 3 4 5 6 7 8 8 9 10 11 12 13 14 15 17 17 18 19 20 21 22 23 25 26 27 28 28 29 29 30 31 32 32 33 34 34 35 36 36 37 38 39 40
5 7 8 9 10 11 12 13 14 15 16 16 17 18 18 19 20 21 22 23 23 24 25 26 27 27 28 28 29 29 30 30 31 31 32 32 33 34 35 35 36 37 37 38
11 12 13 14 15 16 17 17 18 19 19 20 20 21 21 22 22 23 23 24 24 25 26 26 27 27 27 28 28 29 29 30 30 31 31 31 32 32 33 34 35 35 35 35
Wind_Direction
240 246 246 245 244 241 236 243 245 252 252 256 253 252 252 256 256 253 253 259 252 246 243 249 247 244 243 244 245 247 250 253 253 252 251 251 252 251 252 255 258 258 255 256
244 253 259 252 248 248 247 248 252 255 258 260 257 256 258 257 260 257 257 256 258 250 250 250 249 248 246 245 248 248 254 258 260 257 254 253 253 253 253 253 257 260 257 256
243 252 263 248 250 253 254 252 250 254 256 264 262 255 255 259 260 257 258 257 254 257 253 250 251 246 245 247 247 251 256 260 263 263 258 255 254 254 254 254 255 257 256 256
245 249 247 239 263 254 258 262 260 261 256 256 258 261 261 259 264 259 260 262 258 256 252 252 252 248 249 251 251 255 259 261 262 265 260 258 257 256 256 256 255 254 256 257
243 244 252 257 255 261 262 266 269 268 266 260 255 257 259 256 256 260 262 265 262 255 251 253 254 252 250 251 253 255 260 264 263 266 262 260 260 260 260 258 257 257 259 258
243 246 249 250 256 266 268 262 276 281 278 275 258 251 254 256 259 262 265 267 265 257 252 252 255 254 251 250 252 258 262 265 263 265 264 263 264 264 263 262 261 259 259 260
244 250 255 254 261 265 263 266 272 276 276 276 268 261 263 263 261 264 264 269 266 260 256 256 253 252 249 251 256 258 261 264 262 264 266 266 266 265 264 263 261 260 259 260
240 251 259 253 262 256 262 270 267 271 270 268 269 270 267 268 266 266 263 266 264 257 259 256 251 250 251 253 256 259 262 263 263 265 267 267 266 266 264 262 260 261 262 264
239 249 260 258 263 267 268 266 273 269 273 264 260 266 271 271 273 269 266 265 262 258 255 253 251 251 252 256 258 261 263 264 265 267 268 268 266 265 264 261 262 264 264 264
257 262 266 273 275 275 270 264 266 269 268 263 264 262 267 272 275 276 268 262 257 252 249 250 254 257 257 257 259 262 262 264 266 268 269 270 268 267 264 265 265 266 266 266
261 270 277 273 284 283 279 272 262 262 263 262 262 266 263 266 271 270 271 262 251 247 252 255 260 260 259 257 259 262 264 266 268 269 269 269 271 271 270 270 269 268 268 268
263 271 274 278 284 286 281 278 269 268 260 266 266 269 271 270 262 266 262 262 257 255 257 259 259 258 262 262 262 263 267 269 271 270 272 272 272 273 277 275 273 272 271 271
267 275 277 278 276 281 277 276 269 264 262 271 266 268 273 271 270 269 265 264 260 259 260 259 260 262 265 264 262 264 267 269 271 271 274 274 276 276 278 278 276 275 273 273
270 277 273 280 276 275 272 274 263 257 264 271 268 272 269 268 271 273 276 274 265 265 259 264 265 265 268 265 263 266 268 271 272 272 275 275 276 277 276 274 276 276 278 278
269 273 274 274 272 268 267 269 262 262 263 269 274 276 275 275 274 274 276 276 273 271 272 266 264 265 264 263 265 268 270 271 272 275 276 275 275 277 278 279 280 279 279 282
274 272 271 268 262 260 263 270 274 268 263 267 272 273 273 276 278 278 281 278 276 277 275 271 269 270 268 266 267 271 272 273 273 274 277 277 277 278 280 281 282 283 284 285
274 269 274 267 264 257 262 263 269 270 263 267 268 268 271 273 279 283 283 284 282 279 277 274 271 271 271 273 272 272 271 275 274 278 278 281 280 281 282 283 284 285 288 288
266 268 271 270 266 257 255 263 265 267 270 268 266 268 273 273 275 277 276 278 282 284 284 280 275 275 274 275 274 275 277 277 278 280 281 281 283 284 285 286 287 288 289 290
265 266 265 270 271 258 256 260 265 272 271 269 268 268 267 267 271 274 277 278 281 283 286 283 282 281 281 280 280 279 281 281 283 283 284 284 286 288 289 289 290 291 291 292
262 262 253 265 269 263 261 265 266 268 271 272 269 266 266 268 268 270 275 283 284 282 282 284 285 286 286 286 284 284 285 286 286 287 288 288 290 291 291 291 292 292 293 293
248 253 260 262 268 273 271 263 262 269 271 273 274 274 268 266 270 273 278 278 283 284 283 287 287 288 289 290 290 289 288 289 289 290 290 291 291 292 293 293 294 295 295 295
229 240 254 259 265 282 276 269 270 271 269 271 273 278 278 277 276 282 285 284 285 289 290 291 292 292 292 292 292 291 291 291 292 292 293 294 294 295 295 296 296 297 297 297
207 214 227 237 273 302 296 301 296 287 284 285 284 286 287 287 287 285 287 291 291 292 292 293 294 295 295 295 295 295 294 295 295 295 295 296 296 297 298 298 299 299 300 300
197 211 248 254 272 291 302 294 297 293 293 295 295 292 290 291 295 296 294 295 296 297 297 297 298 298 298 297 297 297 297 297 297 297 297 298 298 299 300 300 301 302 302 302
231 258 270 277 283 285 287 287 288 290 291 292 293 293 293 292 291 292 294 295 297 297 298 298 298 299 298 298 298 298 298 298 299 299 299 300 301 301 302 303 303 303 304 305
284 284 286 290 288 287 287 287 288 289 289 290 292 292 292 292 293 293 295 296 298 299 299 299 300 300 300 300 300 300 301 301 301 302 302 302 302 303 304 305 306 307 307 308
290 290 288 289 291 290 289 289 289 289 290 290 290 291 291 292 294 295 296 298 299 299 300 301 301 301 301 301 302 302 302 302 303 303 304 305 306 307 308 309 309 310 310 311